Weather History for Jerome, ID

Change the Weather History Date:

Tuesday, October 30, 2012

  Actual Average Record
Temperature  
Mean Temperature 55 °F 44 °F  
Max Temperature 69 °F 54 °F 76 °F (1962)
Min Temperature 40 °F 34 °F 19 °F (1972)
Degree Days  
Heating Degree Days 10 21  
Month to date heating degree days 464 474  
Since 1 July heating degree days 507 677  
Cooling Degree Days 0 0  
Month to date cooling degree days 0 0  
Year to date cooling degree days 750 509  
Growing Degree Days 6 (Base 50)    
Moisture  
Dew Point 32 °F    
Average Humidity 44    
Maximum Humidity 70    
Minimum Humidity 18    
Precipitation  
Precipitation 0.00 in 0.04 in 0.68 in (1964)
Month to date precipitation 0.45 0.78  
Year to date precipitation 7.58 8.07  
Sea Level Pressure  
Sea Level Pressure 30.09 in    
Wind  
Wind Speed 8 mph (ENE)    
Max Wind Speed 16 mph    
Max Gust Speed 21 mph    
Visibility 10 miles    
Events      
T = Trace of Precipitation, MM = Missing Value Source: NWS Daily Summary

Daily Weather History Graph

Daily Weather History Graph

Search for Another Location

Airport:

Trip Planner

Search our weather history database for the weather conditions in past years. The results will help you decide how hot, cold, wet, or windy it might be!

Date:

Astronomy

Oct. 30, 2012 Rise Set
Actual Time 8:10 AM MDT 6:32 PM MDT
Civil Twilight 7:40 AM MDT 7:01 PM MDT
Nautical Twilight 7:07 AM MDT 7:34 PM MDT
Astronomical Twilight 6:34 AM MDT 8:07 PM MDT
Moon 7:02 PM MDT (10/30) 9:02 AM MDT (10/30)
Length of Visible Light 11h 20m
Length of Day
10h 22m
Full, 99% of the Moon is Illuminated
Oct 30
Full
Nov 6
Last Quarter
Nov 13
New
Nov 20
First Quarter
Nov 28
Full

Hourly Weather History & Observations

Time (MDT) Temp. Windchill Dew Point Humidity Pressure Visibility Wind Dir Wind Speed Gust Speed Precip Events Conditions
12:53 AM 46.0 °F 41.9 °F 35.1 °F 66% 30.14 in 10.0 mi East 8.1 mph - N/A   Clear
1:53 AM 45.0 °F 41.8 °F 35.1 °F 68% 30.13 in 10.0 mi ESE 5.8 mph - N/A   Clear
2:53 AM 45.0 °F 42.6 °F 34.0 °F 65% 30.12 in 10.0 mi ESE 4.6 mph - N/A   Clear
3:53 AM 42.1 °F - 34.0 °F 73% 30.13 in 10.0 mi Calm Calm - N/A   Clear
4:53 AM 44.1 °F 39.5 °F 35.1 °F 71% 30.11 in 10.0 mi East 8.1 mph - N/A   Clear
5:53 AM 42.1 °F 37.7 °F 34.0 °F 73% 30.12 in 10.0 mi ENE 6.9 mph - N/A   Clear
6:53 AM 44.1 °F 39.0 °F 34.0 °F 68% 30.12 in 10.0 mi ENE 9.2 mph - N/A   Clear
7:53 AM 44.1 °F 38.6 °F 36.0 °F 73% 30.12 in 10.0 mi NE 10.4 mph - N/A   Clear
8:53 AM 46.0 °F 39.6 °F 35.1 °F 66% 30.13 in 10.0 mi NE 15.0 mph - N/A   Clear
9:53 AM 48.9 °F - 35.1 °F 59% 30.13 in 10.0 mi ENE 15.0 mph - N/A   Clear
10:53 AM 53.1 °F - 37.9 °F 57% 30.13 in 10.0 mi NE 11.5 mph - N/A   Clear
11:53 AM 59.0 °F - 37.9 °F 46% 30.11 in 10.0 mi NE 10.4 mph - N/A   Clear
12:53 PM 64.9 °F - 36.0 °F 34% 30.09 in 10.0 mi North 4.6 mph - N/A   Clear
1:53 PM 66.0 °F - 28.9 °F 25% 30.07 in 10.0 mi SW 6.9 mph - N/A   Clear
2:53 PM 69.1 °F - 27.0 °F 21% 30.04 in 10.0 mi West 9.2 mph - N/A   Clear
3:53 PM 69.1 °F - 25.0 °F 19% 30.04 in 10.0 mi WNW 6.9 mph - N/A   Clear
5:53 PM 63.0 °F - 34.0 °F 34% 30.04 in 10.0 mi Calm Calm - N/A   Clear
6:53 PM 53.1 °F - 30.0 °F 41% 30.06 in 10.0 mi ENE 5.8 mph - N/A   Clear
7:53 PM 53.1 °F - 28.0 °F 38% 30.06 in 10.0 mi ENE 6.9 mph - N/A   Clear
8:53 PM 54.0 °F - 27.0 °F 35% 30.05 in 10.0 mi East 11.5 mph - N/A   Clear
9:53 PM 55.0 °F - 28.0 °F 35% 30.04 in 10.0 mi ENE 10.4 mph - N/A   Clear
10:53 PM 55.0 °F - 28.9 °F 37% 30.03 in 10.0 mi East 12.7 mph - N/A   Clear
11:53 PM 53.1 °F - 28.9 °F 40% 30.02 in 10.0 mi East 11.5 mph - N/A   Clear